Location: Unspecified
(0.0000°N, 0.0000°E)
Time: 23:26:34
(UTC+00:00)

CICERO 6 - Visible Passes

Search period start: 06 June 2023 00:00
Search period end: 16 June 2023 00:00
Orbit: 445 x 457 km, 97.1° (Epoch: 06 June)

Date Brightness Start Highest point End Pass type
(mag) Time Alt. Az. Time Alt. Az. Time Alt. Az.
06 Jun ? 19:24:30 16° NNE 19:24:30 16° NNE 19:25:27 10° NNE visible
07 Jun ? 20:23:03 12° NW 20:23:03 12° NW 20:23:22 10° NW visible
08 Jun ? 19:47:56 21° N 19:47:56 21° N 19:49:12 10° N visible
09 Jun ? 19:12:47 12° NE 19:12:47 12° NE 19:13:20 10° NE visible
10 Jun ? 20:11:13 16° NW 20:11:13 16° NW 20:12:06 10° NNW visible
11 Jun ? 19:35:59 21° NNE 19:35:59 21° NNE 19:37:18 10° N visible
13 Jun ? 19:59:03 21° NNW 19:59:03 21° NNW 20:00:18 10° NNW visible
14 Jun ? 19:23:41 17° NE 19:23:41 17° NE 19:24:51 10° NNE visible
15 Jun ? 20:21:56 13° NW 20:21:56 13° NW 20:22:28 10° NW visible
